CAPE
0 0 0 0 24 0 20 43 0 0 6 0 38 267 115 33 133 461 5 26 53 16 22 26 34 27 34 38 35 27 23 20 18 15 12 10 8 8 11 9 5 1 0 3 3 4 7 9 5
0 0 0 0 0 16 42 0 0 0 0 9 31 55 72 38 2 3 43 35 14 9 39 28 18 16 19 21 15 19 19 16 12 14 8 12 7 5 8 3 2 0 0 0 2 7 10 9 15
0 0 0 0 0 2 7 0 0 0 0 5 33 93 153 61 10 5 72 7 10 32 32 20 16 15 22 31 23 12 13 12 12 7 4 6 5 2 13 3 0 0 0 0 1 0 1 16 21
0 0 0 0 6 0 0 0 0 0 0 10 61 141 23 8 16 100 55 3 18 20 32 23 43 16 15 17 20 15 8 13 11 8 6 4 2 3 11 0 0 0 0 0 1 0 0 13 16
0 0 0 0 5 0 0 0 0 37 12 36 73 127 38 1 64 97 58 44 105 37 10 14 64 19 4 0 0 10 5 8 5 10 6 2 2 5 1 0 0 0 0 0 0 0 0 4 3
0 0 0 2 6 0 0 0 0 0 0 0 28 134 26 3 36 70 64 66 68 52 23 18 27 15 4 0 0 2 11 14 1 3 3 2 0 0 0 0 0 0 0 0 0 0 0 2 1
0 0 0 0 0 0 0 0 0 0 33 61 66 208 27 14 44 56 59 64 115 171 189 59 27 10 0 0 0 1 2 1 6 1 2 0 0 0 0 0 0 0 0 0 0 0 0 0 0
0 0 0 0 0 1 0 0 0 0 64 95 206 273 219 35 23 69 68 97 169 228 248 213 113 9 12 0 0 0 0 0 0 1 0 0 0 0 0 0 0 0 0 0 0 0 0 0 0
0 0 0 0 0 11 0 8 0 52 83 173 266 345 242 61 63 83 89 100 117 142 157 315 198 137 41 34 0 0 0 0 0 0 0 0 1 0 0 0 0 0 0 0 0 0 0 0 0
0 0 0 0 0 0 0 0 0 64 71 163 129 103 93 48 93 120 142 185 128 125 172 167 210 161 29 16 21 14 25 21 8 0 0 0 1 0 0 0 0 0 0 0 0 0 0 0 0
0 0 0 0 0 0 0 10 107 85 184 244 146 44 54 78 147 186 160 248 179 186 131 171 236 197 111 112 17 16 5 11 9 0 2 2 0 0 0 0 0 0 0 0 0 0 0 0 0
0 0 0 0 0 0 0 0 17 96 22 104 56 81 61 96 236 321 209 171 240 228 233 206 201 180 151 183 13 6 0 0 0 2 0 0 0 1 0 2 8 1 0 1 0 0 0 0 0
0 0 0 0 0 0 0 0 0 0 5 30 84 155 212 273 306 308 301 259 291 288 367 444 294 237 146 88 0 0 1 0 0 0 0 0 1 10 12 18 10 18 18 7 1 0 0 0 0
0 0 0 0 0 0 0 0 19 2 58 139 228 297 323 277 266 340 395 297 287 261 457 428 401 153 85 40 112 49 44 9 0 0 11 16 4 27 33 55 42 35 35 34 32 21 13 3 2
0 0 0 0 0 0 1 3 9 43 160 189 199 214 200 168 204 279 307 321 361 414 450 396 463 356 320 135 232 104 170 70 69 97 76 39 75 92 99 96 157 83 95 80 56 45 34 25 25
0 0 1 0 0 0 0 26 2 20 59 67 55 35 25 16 9 10 9 5 3 6 37 252 257 301 87 85 337 406 136 126 121 155 202 183 153 148 158 151 171 120 194 135 90 74 81 66 52
0 0 1 0 0 0 0 34 6 10 12 20 16 5 1 0 0 0 0 0 0 0 3 15 16 85 209 118 150 255 188 106 52 89 85 139 148 117 238 173 220 202 197 158 164 148 105 108 86
11 0 0 14 0 0 6 27 1 1 2 3 6 1 0 0 0 0 0 0 0 4 4 13 35 43 126 220 229 114 158 76 152 109 79 193 95 92 78 97 262 310 238 116 324 260 223 108 67
0 0 6 7 0 5 9 13 13 2 0 9 18 4 1 0 0 0 1 4 4 4 9 18 25 41 79 87 83 84 86 194 154 130 119 156 120 93 86 99 149 153 157 192 250 228 156 90 0
0 3 20 0 0 1 0 6 12 17 20 20 21 17 7 2 2 0 0 0 2 7 18 22 29 43 50 51 52 75 80 78 98 81 198 207 149 295 200 287 213 173 168 184 227 308 265 275 261
0 1 15 0 0 0 0 8 10 14 22 26 10 3 12 9 0 0 0 0 0 3 7 3 4 2 2 1 1 8 17 24 20 30 45 59 93 67 129 108 61 147 158 145 211 212 217 204 220
0 0 0 0 0 13 0 100 8 20 14 11 17 25 23 0 0 0 0 0 0 0 0 0 0 0 0 0 0 0 0 0 2 7 6 8 10 0 2 5 59 121 90 123 143 193 203 195 137
0 0 0 0 0 0 0 0 19 2 15 13 15 16 1 0 0 0 0 0 0 0 0 0 0 0 0 0 0 0 0 1 2 2 0 0 1 17 41 46 60 78 79 103 133 140 158 152 179
0 0 0 0 2 17 43 10 216 46 21 7 14 0 0 0 0 0 0 0 0 0 0 0 0 0 0 0 0 2 5 8 12 19 29 32 37 28 35 64 78 77 54 47 81 114 115 123 117
0 0 18 18 42 83 11 0 58 18 4 10 1 0 0 0 0 0 0 0 0 0 0 0 0 0 7 3 1 5 21 28 15 22 28 21 20 21 10 0 3 14 23 46 17 19 9 71 95
0 0 30 23 95 190 0 3 27 13 14 0 0 0 0 0 0 0 0 0 0 0 0 0 0 1 4 1 0 1 0 0 11 11 13 15 21 14 23 40 27 45 35 33 53 32 38 7 8
0 0 2 26 25 43 102 8 6 4 6 0 0 0 1 0 0 0 0 0 0 0 0 0 1 5 0 4 2 2 5 9 12 11 15 21 28 19 4 24 23 14 23 50 48 73 63 32 4
0 13 18 17 330 176 120 51 33 9 8 11 5 3 2 0 0 0 0 0 0 0 0 0 5 0 6 12 10 7 3 4 6 14 17 23 44 59 59 72 56 61 61 62 75 63 53 83 73
1 0 10 165 0 563 137 131 1 3 15 8 9 7 4 0 0 0 0 0 0 0 0 1 7 7 8 11 10 23 21 16 10 15 42 70 81 73 35 52 18 53 13 49 58 71 42 44 57
12 56 102 152 214 43 264 32 0 6 5 2 6 15 4 0 0 0 0 0 0 0 0 0 10 9 7 8 13 21 12 18 16 42 52 46 52 53 49 44 52 29 41 45 43 22 10 45 46
CIN
0 0 0 0 -86 0 -1 -1 0 0 -1 0 -38 -22 -94 -180 -197 -104 0 -360 -342 0 0 0 0 -2 -1 -1 -1 0 0 0 0 0 0 -1 0 0 0 0 0 0 0 0 0 0 0 0 0
0 0 0 0 0 0 -1 0 0 0 0 -15 -41 -18 -56 -261 0 0 -213 -203 -2 -176 -377 -458 0 -4 -3 0 0 0 0 0 0 0 0 0 0 0 0 0 0 0 0 0 0 0 0 0 -1
0 0 0 0 0 -1 -4 0 0 0 0 -13 -37 -76 -119 -239 -211 -101 -302 -414 -422 -372 -389 -291 -291 -5 -5 -1 -1 0 0 0 0 0 0 0 0 0 0 0 0 0 0 0 0 0 0 -1 -2
0 0 0 0 0 0 0 0 0 0 0 -17 -24 -89 -310 0 -313 -255 -307 -402 -370 -362 -355 -383 -330 -8 -5 -3 -3 -1 -1 -2 -1 0 0 0 0 0 -1 0 0 0 0 0 0 0 0 0 0
0 0 0 0 0 0 0 0 0 0 0 -10 -8 -64 -284 -1 -249 -233 -267 -281 -215 -300 -2 -1 -287 -9 -7 0 -2 -2 -1 -1 0 0 0 0 0 0 -2 0 0 0 0 0 0 0 0 0 0
0 0 0 0 0 0 0 0 0 0 0 0 -32 -58 -185 0 -264 -221 -224 -214 -221 -247 -298 0 -1 -2 -8 0 0 -1 -1 -2 -1 0 0 0 0 0 0 0 0 0 0 0 0 0 0 0 0
0 0 0 0 0 0 0 0 0 0 -1 -53 -36 -25 -310 -307 -278 -240 -208 -189 -155 -115 -122 -196 0 -5 0 0 0 -1 -1 -1 -2 0 0 0 0 0 0 0 0 0 0 0 0 0 0 0 0
0 0 0 0 0 -1 0 0 0 0 -63 -81 -51 -3 -121 -306 -305 -199 -168 -133 -105 -78 -73 -90 -147 -8 -1 0 0 0 0 0 0 0 0 0 0 0 0 0 0 0 0 0 0 0 0 0 0
0 0 0 0 0 -3 0 -1 0 -51 -112 -141 -111 -95 -151 -243 -203 -142 -127 -117 -104 -86 -80 -44 -77 -126 -226 -269 -1 -1 0 0 0 0 0 0 -1 0 0 0 0 0 0 0 0 0 0 0 0
0 0 0 0 0 0 0 0 0 -3 -28 -143 -226 -233 -213 -202 -140 -96 -77 -59 -79 -69 -51 -55 -49 -73 -166 0 0 0 0 0 0 0 -1 0 -1 0 0 0 0 0 0 0 0 0 0 0 0
0 0 0 0 0 0 0 -66 -83 -10 -50 -50 -167 -232 -197 -156 -87 -48 -41 -8 -28 -23 -42 -53 -34 -30 -54 -56 0 0 0 0 0 0 0 0 0 0 0 0 0 0 0 0 0 0 0 0 0
0 0 0 0 0 0 0 0 -216 -208 -212 -162 -195 -165 -145 -95 -28 -2 -20 -33 -13 -19 -21 -20 -31 -22 -18 -4 -8 0 0 0 0 0 0 0 0 0 0 0 0 -1 0 0 0 0 0 0 0
0 0 0 0 0 0 0 0 0 -117 -41 -164 -130 -67 -27 -7 -1 -3 -3 -15 -4 -6 -4 0 -2 -2 -7 -19 0 0 -8 0 0 0 0 0 0 -1 0 0 0 0 0 -1 -1 0 0 0 0
0 0 0 0 0 0 0 0 -80 -30 -125 -64 -18 -2 -1 0 -1 0 0 0 -16 -15 -2 -1 0 -29 -17 -33 -3 -46 -35 0 0 0 0 0 0 0 0 -1 0 0 0 0 0 0 0 0 0
0 0 0 0 0 0 -52 -121 -142 -101 -32 -12 -6 -3 -7 -4 -2 0 -1 -2 -1 0 0 0 0 -1 -1 -12 -1 -40 -6 -7 -1 -5 -1 -1 0 -1 0 -3 -11 -16 -2 -1 -1 0 0 0 0
0 0 0 0 0 0 0 -64 -175 -75 -9 -13 -18 -12 -21 -45 -35 -46 -24 0 0 0 -38 -2 0 0 -18 -23 -12 -3 0 -3 -15 -4 -20 -16 -3 0 0 0 -4 -18 -23 -28 -12 -3 -1 -1 -1
0 0 0 0 0 0 0 -50 -127 -60 -30 0 0 0 0 0 0 0 0 0 0 0 0 0 -3 -6 -1 -30 -21 -2 -1 -4 0 -1 -7 -10 -15 -19 -6 0 -1 -20 -23 -15 0 -7 -14 -3 -6
0 0 0 0 -81 0 -63 -59 -43 0 0 0 0 0 0 0 0 0 0 0 0 0 0 0 -3 -5 -4 0 -2 -8 -2 -14 -2 -1 -1 -1 -1 -8 -4 -2 0 0 0 -23 -1 0 -7 -2 -7
-1 0 0 -81 -1 -97 -95 -115 0 0 0 0 0 -1 0 0 0 0 0 0 0 0 0 0 0 0 -6 -2 -8 -9 -4 -1 -2 -1 -3 -1 -26 -12 -25 -20 -12 0 0 0 0 0 0 0 0
0 -41 -10 0 0 -87 -49 0 0 0 0 0 0 0 0 -1 0 0 0 0 0 0 0 0 0 0 -1 0 0 -1 0 0 -1 -1 -1 -1 -4 0 -3 -1 -1 -2 -4 -3 -1 -1 -1 0 -1
-6 -20 -28 0 0 0 0 0 0 0 0 0 0 0 0 -1 0 0 0 0 0 0 0 0 0 0 0 0 0 0 0 0 0 -1 -3 -9 -4 -4 -4 -1 -4 0 0 0 0 0 0 0 -1
-48 0 0 0 0 -40 0 0 -3 0 0 0 -1 -1 0 -1 0 0 0 0 0 0 0 0 0 0 0 0 0 0 0 0 0 0 0 -1 -1 0 -1 -2 0 0 0 0 0 0 0 0 0
0 0 0 0 0 0 -2 0 -1 0 0 -1 0 -1 -1 0 0 0 0 0 0 0 0 0 0 0 0 0 0 0 0 0 0 0 0 -12 -8 -9 -3 -3 -3 0 0 0 0 0 0 -2 -1
0 0 0 0 -41 -53 -14 -19 0 -1 -1 -1 0 0 0 0 0 0 0 0 0 0 0 0 0 0 0 0 0 -2 -2 0 0 0 0 0 0 -1 -4 -1 -1 0 -2 -2 -1 -1 0 0 0
0 0 -18 -30 -25 -11 -36 0 -12 -1 -1 0 0 0 0 0 0 0 0 0 0 0 0 0 0 0 0 0 0 0 0 -2 -2 0 0 0 0 0 -4 -8 -1 0 -1 0 -1 0 -1 0 0
0 0 -7 -5 0 -2 0 0 0 0 -1 0 0 0 0 0 0 0 0 0 0 0 0 0 0 0 0 0 0 -1 0 0 0 0 0 0 0 0 0 0 0 -1 -9 -7 0 0 0 -10 -29
0 0 0 -1 -3 -1 -1 -1 -7 0 0 0 0 0 0 0 0 0 0 0 0 0 0 0 0 0 0 0 0 0 0 0 0 0 0 0 0 0 -1 0 0 -3 -1 0 0 0 0 -1 0
0 -2 0 -2 0 0 0 -8 0 0 0 0 0 0 0 0 0 0 0 0 0 0 0 0 0 0 0 0 0 -1 0 -1 0 0 0 0 0 0 0 0 0 0 0 0 0 0 0 0 0
0 0 0 -1 0 -1 0 0 -2 -2 -1 0 0 0 0 0 0 0 0 0 0 0 0 0 0 0 0 0 -1 0 0 0 0 0 0 0 0 0 0 0 -1 0 0 0 0 0 0 0 0
-10 0 -15 -2 0 -1 0 -1 0 -1 0 0 0 -1 0 0 0 0 0 0 0 0 0 0 0 0 0 -1 0 0 0 0 0 0 0 0 0 0 0 0 0 -1 -1 -1 0 0 0 0 0
Wind_Speed
9 11 11 9 10 10 12 7 8 3 4 11 12 14 18 17 11 7 6 11 15 12 12 14 14 15 13 11 11 11 10 11 9 10 9 11 12 10 11 14 12 12 12 12 11 11 12 10 7
12 10 9 10 11 13 6 9 7 10 10 7 9 2 11 11 15 9 8 13 12 9 9 13 14 14 13 11 10 9 9 9 9 9 10 10 10 9 12 12 11 11 11 11 11 12 12 9 7
14 11 11 11 9 8 11 12 6 4 7 2 7 15 10 7 9 5 16 14 11 10 10 13 14 14 12 11 10 9 8 8 8 9 9 9 9 9 10 11 10 10 11 11 11 12 12 11 12
8 10 10 11 10 12 10 9 4 8 7 3 11 13 12 12 3 11 15 14 11 11 11 13 13 14 13 11 10 8 7 7 7 7 8 7 8 8 10 10 9 9 9 10 10 11 11 11 11
10 9 12 14 6 6 7 3 3 9 8 10 3 11 9 7 13 17 15 11 12 10 10 12 11 13 12 11 10 7 4 6 6 6 6 6 7 7 9 8 7 8 8 9 10 10 11 10 10
11 5 11 11 10 5 6 2 7 9 10 8 13 12 9 4 10 11 11 11 10 10 9 11 12 11 10 9 9 5 5 5 5 5 4 6 6 5 6 6 6 6 8 8 9 10 10 10 10
13 8 13 8 9 8 9 4 9 6 12 13 7 10 7 6 6 9 8 8 8 9 9 8 10 11 9 7 7 5 4 3 4 4 3 5 5 4 5 5 6 6 7 8 9 9 9 9 9
9 7 3 6 6 15 4 10 7 9 13 2 13 7 11 12 8 8 8 5 5 6 6 8 7 7 7 9 7 4 3 2 1 4 3 4 5 5 6 7 7 6 6 7 8 8 7 7 7
8 10 7 5 2 12 8 7 10 19 17 19 16 19 19 17 10 9 7 7 6 5 3 5 5 5 2 8 10 8 7 4 4 6 6 8 9 9 11 9 6 4 4 4 5 4 1 4 6
11 10 8 11 10 13 8 9 4 11 14 17 17 16 16 14 11 10 9 9 7 7 5 3 3 2 1 2 4 3 6 8 8 7 9 9 2 0 8 8 7 5 5 4 4 5 8 10 5
5 11 9 7 5 0 11 11 17 17 14 14 14 13 12 10 8 7 8 11 8 7 3 9 5 1 4 2 3 2 2 2 4 5 5 6 3 5 6 6 7 8 10 8 9 8 8 4 4
4 4 8 6 3 8 12 10 15 18 8 13 10 11 10 9 5 6 5 5 5 4 1 4 5 3 1 5 3 4 3 2 4 6 6 5 5 5 5 4 5 3 6 4 4 4 1 3 2
3 6 9 9 8 13 12 13 14 14 10 9 10 10 9 6 6 4 3 3 4 3 2 3 1 4 1 4 3 2 5 5 5 4 6 6 6 5 5 6 6 5 5 5 5 5 5 5 5
10 9 9 10 13 11 14 11 5 7 8 10 10 8 7 4 2 1 2 0 2 5 7 7 7 5 5 7 7 5 5 5 6 6 7 9 7 7 7 7 8 8 7 7 6 7 6 7 6
11 10 9 10 10 11 18 10 10 7 10 8 8 6 7 6 3 3 2 3 4 5 6 5 6 7 6 7 8 6 8 5 6 6 8 9 9 9 10 7 4 7 7 8 8 8 8 8 7
14 10 13 8 9 7 8 10 8 7 9 9 8 8 7 6 5 5 4 2 2 6 6 4 4 6 4 6 6 7 6 8 6 5 5 8 11 12 10 10 7 8 6 4 6 8 8 9 8
12 13 9 8 5 5 12 12 8 7 7 8 8 7 6 6 5 4 2 3 6 9 5 2 2 4 5 8 9 11 12 10 10 8 10 12 11 5 9 10 11 7 4 8 10 8 5 7 5
11 13 4 7 5 9 5 11 9 9 9 7 6 5 4 5 5 4 3 5 6 5 4 5 2 3 5 8 10 9 10 9 7 10 10 10 10 13 11 13 12 11 12 8 10 12 10 9 8
10 3 7 9 4 3 7 11 11 9 8 8 5 3 3 2 1 1 1 4 4 6 7 6 7 7 6 8 8 9 9 8 9 11 13 14 7 11 10 10 10 10 11 13 12 11 14 11 8
5 4 7 4 4 7 9 9 9 10 4 2 1 4 2 2 4 4 4 4 5 7 7 8 10 10 10 9 10 9 11 12 12 12 13 14 14 15 11 13 12 13 12 16 13 13 10 11 11
3 6 10 6 7 9 9 10 10 7 7 5 5 2 3 4 6 5 4 6 7 8 8 9 11 11 11 13 11 10 11 10 12 12 9 9 10 10 9 10 10 13 12 11 12 11 15 12 11
9 2 3 7 10 5 13 1 13 13 12 8 5 4 3 6 5 7 9 10 10 8 8 8 10 12 12 12 11 13 12 14 12 12 12 13 14 14 13 14 13 13 11 13 12 12 13 12 12
5 5 5 7 10 2 10 8 7 6 10 8 4 2 4 5 8 9 9 8 9 9 10 11 12 12 12 12 12 11 14 12 12 12 16 14 12 13 13 12 12 13 11 12 13 13 14 11 11
7 6 5 5 7 8 9 8 7 9 8 6 4 2 4 7 7 9 8 8 9 10 10 10 12 13 14 14 14 11 11 13 12 13 12 11 9 8 10 10 8 10 11 10 12 14 15 14 13
9 10 6 6 6 6 7 5 3 9 6 2 3 4 5 7 9 9 10 11 11 11 11 11 13 13 15 15 12 12 12 11 11 11 10 14 11 11 10 11 10 9 11 11 12 13 14 13 13
11 12 4 6 7 5 8 4 5 8 5 3 0 2 6 8 9 10 10 10 11 11 11 12 13 13 13 14 15 11 9 7 10 10 10 10 9 9 13 13 12 13 14 11 11 11 10 10 10
9 12 10 10 5 6 6 6 3 6 8 2 3 5 7 9 10 11 11 10 10 10 11 11 13 13 13 13 10 9 8 9 10 12 11 8 11 9 10 11 11 12 14 14 9 10 12 9 7
10 4 6 7 3 4 6 9 3 8 7 3 2 6 8 10 11 11 10 10 10 10 10 12 15 13 11 13 10 8 9 10 11 11 12 13 13 12 10 13 13 12 12 13 11 9 11 11 7
9 10 6 5 2 3 4 5 2 4 3 2 4 6 9 10 11 11 11 10 10 11 11 12 14 12 11 11 11 9 8 10 10 11 12 12 11 9 11 10 8 10 9 10 10 10 11 11 10
10 6 8 2 3 2 5 3 1 2 1 2 6 6 8 10 11 10 11 11 11 11 12 14 12 11 10 8 9 12 10 10 11 11 13 13 13 11 12 10 11 10 11 10 11 9 6 9 13
Wind_Direction
207 222 240 258 245 230 267 88 351 265 159 64 47 40 77 36 15 52 122 103 109 115 130 114 106 97 89 85 83 83 85 84 84 80 78 76 77 72 69 70 58 52 47 44 45 38 31 28 75
244 236 241 271 253 276 69 54 3 14 78 106 60 125 45 72 63 102 116 105 113 125 120 111 106 101 97 93 91 88 86 90 86 88 78 76 76 76 71 70 60 55 50 48 53 43 35 32 81
261 256 268 249 262 313 45 48 16 89 123 44 113 49 38 59 72 73 117 118 121 108 109 113 111 106 103 99 96 95 82 88 88 83 89 79 77 75 76 71 62 55 53 52 56 46 41 38 39
250 221 233 256 268 64 357 59 120 119 125 72 101 88 96 20 95 112 118 131 124 122 118 117 116 114 108 96 86 86 82 69 79 81 84 82 81 85 78 68 59 54 55 59 57 52 46 52 51
238 258 262 249 89 93 78 75 199 74 63 47 322 78 75 27 96 126 135 139 122 117 121 129 123 118 117 117 111 87 98 83 75 80 79 82 80 76 77 74 64 55 57 62 61 58 53 59 56
253 261 256 228 127 133 93 49 63 83 91 53 81 91 73 83 119 117 134 118 129 134 133 134 127 121 122 124 113 115 101 73 99 76 86 83 79 80 84 80 73 67 64 63 66 64 60 59 50
254 267 279 332 114 172 69 30 35 72 52 38 22 69 97 133 110 121 116 130 124 139 136 137 140 124 114 108 108 97 92 47 39 97 99 98 91 92 95 93 85 86 73 73 79 78 72 67 58
285 273 257 229 160 118 92 70 62 29 59 114 341 89 147 139 149 135 126 110 158 113 112 123 137 155 166 142 122 127 128 142 157 134 145 145 146 150 150 141 94 90 83 81 77 75 76 75 65
257 254 220 126 205 110 76 116 82 85 85 54 53 66 101 128 143 130 146 154 77 86 91 131 148 134 200 160 132 169 169 177 195 191 198 218 220 176 169 88 121 127 117 110 107 97 139 152 130
253 269 68 25 18 70 64 36 127 134 90 91 81 82 105 125 134 158 167 153 161 146 185 76 76 82 208 264 144 180 162 207 198 201 174 230 125 294 22 130 167 179 177 172 171 208 237 219 192
207 355 75 92 12 192 103 72 6 111 68 60 107 110 114 127 166 150 143 146 145 141 231 133 162 135 237 2 351 244 221 239 187 249 236 233 222 188 213 173 183 193 200 204 193 197 230 44 324
232 24 2 53 353 122 76 84 68 54 78 70 104 118 129 133 157 100 64 35 32 52 100 160 117 150 214 295 324 359 254 233 253 199 208 256 220 222 261 247 227 205 190 228 242 209 67 220 206
198 107 87 84 97 85 90 80 94 87 113 128 129 147 147 131 120 146 136 86 3 50 300 282 237 236 322 295 333 353 290 273 253 233 219 254 262 249 258 246 252 263 233 213 248 248 212 214 229
91 103 130 122 115 119 116 122 98 102 135 134 150 137 128 116 134 140 217 263 277 290 250 258 245 213 238 248 232 261 236 250 236 256 244 207 249 256 255 235 232 241 238 245 232 242 229 225 249
140 152 150 140 137 142 137 96 98 131 147 131 123 112 112 97 102 95 98 198 254 254 255 267 240 221 240 278 269 272 252 258 250 257 240 235 244 246 258 266 282 295 261 239 250 254 243 260 238
204 210 185 151 177 160 247 107 118 163 144 126 114 104 92 70 64 52 33 17 17 11 30 45 246 262 246 254 274 258 284 267 265 263 251 231 227 233 254 266 249 227 242 232 236 237 244 247 252
218 239 194 140 209 166 220 119 135 155 145 131 135 134 123 116 112 101 142 63 24 65 26 113 97 267 265 256 254 245 254 259 271 260 235 231 209 272 252 251 267 280 254 251 242 237 236 246 240
221 211 215 166 121 226 165 112 156 155 155 153 128 120 109 107 69 67 24 23 354 13 353 321 248 200 216 249 247 246 243 256 264 255 262 264 239 228 257 262 234 257 268 237 240 242 246 237 259
304 274 178 103 32 146 146 155 161 158 168 178 161 112 87 50 127 201 297 285 322 315 319 308 305 301 273 270 278 277 279 259 240 252 254 263 262 264 249 230 265 240 250 261 263 253 250 245 237
267 241 121 99 171 256 164 157 155 185 159 129 224 157 70 346 346 3 355 327 297 290 273 280 279 282 290 290 292 297 297 293 295 299 298 296 289 287 280 292 287 278 261 248 240 239 240 248 236
219 252 154 278 169 246 190 175 177 169 183 176 194 344 240 3 354 353 343 322 319 319 327 323 319 314 312 315 302 298 297 288 282 280 274 273 286 301 298 278 282 285 286 279 273 250 233 245 248
256 153 236 165 198 233 207 102 191 167 195 196 166 231 355 7 350 341 345 350 342 333 337 321 324 317 308 316 302 300 299 294 292 294 290 301 297 300 300 290 278 272 271 271 269 263 259 252 250
43 143 192 198 231 271 191 260 108 147 221 162 149 18 16 351 359 355 349 337 316 346 359 340 330 316 319 317 313 306 302 303 309 310 310 303 297 289 277 275 276 274 275 272 271 271 269 264 252
135 163 167 216 237 236 228 234 182 181 156 134 117 30 8 9 347 350 348 347 351 347 350 336 326 329 330 324 319 328 321 308 300 304 306 299 301 302 307 302 280 277 278 285 291 287 273 266 263
187 181 196 219 200 229 81 234 96 95 104 45 58 1 9 358 7 345 355 351 349 349 348 340 338 330 344 342 331 325 319 328 324 317 317 320 313 312 312 323 324 301 282 273 277 279 293 287 280
218 215 226 237 241 176 151 241 94 104 109 121 211 26 360 4 3 356 358 353 350 354 346 342 333 340 341 352 346 347 359 331 327 333 316 306 305 310 317 314 312 296 290 293 277 267 266 284 300
197 231 273 285 254 282 140 89 200 185 143 160 48 341 3 358 -0 358 355 3 349 357 347 346 335 344 352 345 329 320 341 330 320 313 312 307 306 289 282 275 282 286 290 293 280 274 267 248 277
273 324 214 228 197 242 208 166 143 184 159 101 2 354 354 357 359 358 356 359 350 352 346 351 357 347 348 339 325 320 323 322 322 317 306 295 295 297 301 297 283 278 273 271 274 280 274 275 252
188 237 244 91 63 291 246 105 49 113 76 346 350 355 355 359 2 356 354 356 351 350 351 359 357 344 351 339 327 323 322 310 325 310 300 302 300 294 313 290 301 288 294 296 279 274 280 269 267
304 266 142 196 183 254 280 128 163 152 99 327 320 5 356 6 5 355 354 352 352 352 351 1 351 356 353 326 321 322 332 331 323 318 320 326 311 316 306 300 289 278 266 264 261 255 257 276 262